Location: Allaines
(49.9632°N, 2.9458°E)
Time: 18:50:33
(UTC+00:00)

ISS - Visible Passes

Search period start: 23 June 2021 00:00
Search period end: 03 July 2021 00:00
Orbit: 417 x 422 km, 51.6° (Epoch: 22 June)

Date Brightness Start Highest point End Pass type
(mag) Time Alt. Az. Time Alt. Az. Time Alt. Az.
29 Jun -1.2 02:16:45 10° SE 02:17:19 10° SE 02:17:53 10° SE visible
01 Jul -2.2 02:16:44 14° S 02:18:49 23° SE 02:21:33 10° E visible
02 Jul -1.8 01:30:56 15° SSE 01:31:33 16° SE 01:33:41 10° E visible
